Location: Saint André
(43.5594°N, 1.3519°W)
Time: 16:47:40
(UTC+00:00)

Tiangong - Visible Passes

Search period start: 14 February 2026 00:00
Search period end: 24 February 2026 00:00
Orbit: 386 x 392 km, 41.5° (Epoch: 13 February)

Date Brightness Start Highest point End Pass type
(mag) Time Alt. Az. Time Alt. Az. Time Alt. Az.
14 Feb -1.1 19:30:11 10° W 19:32:34 43° SW 19:32:34 43° SW visible
15 Feb -1.8 18:31:54 10° WSW 18:35:01 56° S 18:37:04 19° E visible
15 Feb 1.0 20:08:42 10° W 20:09:22 15° W 20:09:22 15° W visible
16 Feb -1.9 19:10:21 10° W 19:13:29 55° S 19:13:51 51° SSE visible
17 Feb -1.8 18:11:58 10° W 18:15:07 59° S 18:18:15 10° E visible
17 Feb 0.0 19:48:54 10° W 19:50:37 25° WSW 19:50:37 25° WSW visible
18 Feb -1.3 18:50:25 10° W 18:53:29 45° SSW 18:55:07 23° SE visible
19 Feb -0.3 19:29:05 10° WSW 19:31:41 23° SSW 19:31:57 23° SSW visible
20 Feb -0.7 18:30:27 10° W 18:33:21 32° SSW 18:36:14 10° SE visible
21 Feb 0.6 19:09:29 10° WSW 19:11:23 15° SSW 19:13:15 10° S visible
22 Feb 0.2 18:10:29 10° WSW 18:13:02 22° SSW 18:15:34 10° SSE visible
